Date,TemperatureHighF,TemperatureAvgF,TemperatureLowF,DewpointHighF,DewpointAvgF,DewpointLowF,HumidityHigh,HumidityAvg,HumidityLow,PressureMaxIn,PressureMinIn,WindSpeedMaxMPH,WindSpeedAvgMPH,GustSpeedMaxMPH,PrecipitationSumIn
2013-1-1,42.3,39.3,30.9,39.9,35.6,25.5,91,87,80,30.07,29.87,5,2,0,0.36
2013-1-2,35.8,29.4,23.9,25.5,20.6,18.1,82,70,49,30.15,30.05,6,2,0,0.00
2013-1-3,45.0,31.3,18.9,26.6,21.8,13.5,85,70,37,30.29,30.14,5,1,0,0.00
2013-1-4,48.9,32.5,20.3,28.4,22.7,15.0,85,70,40,30.38,30.26,5,1,0,0.00
2013-1-5,46.2,36.6,24.3,34.5,27.9,19.9,88,72,52,30.27,30.12,5,2,0,0.00
2013-1-6,53.2,38.7,24.4,36.3,30.4,19.7,89,74,44,30.26,30.08,6,2,0,0.00
2013-1-7,52.9,32.3,18.5,28.0,21.0,12.8,87,67,30,30.31,30.08,8,1,0,0.00
2013-1-8,59.2,42.4,24.6,43.0,31.6,20.5,87,68,43,30.15,30.00,4,1,0,0.00
2013-1-9,57.6,53.8,51.4,53.4,50.5,44.1,93,89,69,30.22,30.06,6,2,0,1.17
2013-1-10,67.3,61.4,55.0,62.5,58.7,53.0,94,91,82,30.14,29.72,10,4,0,1.29
2013-1-11,68.5,61.1,53.1,60.0,52.5,46.9,93,75,48,29.90,29.78,7,3,0,0.04
2013-1-12,71.4,68.3,63.9,66.0,63.8,60.6,94,86,78,29.81,29.58,10,3,0,0.22
2013-1-13,70.2,43.6,30.6,63.0,39.8,25.5,92,86,77,30.14,29.57,11,4,0,3.71
2013-1-14,30.2,28.0,26.1,24.8,22.3,19.9,84,79,70,30.28,30.11,13,4,0,0.04
2013-1-15,30.9,28.8,25.5,28.0,24.8,20.5,89,85,81,30.14,29.91,7,3,0,0.00
2013-1-16,32.7,31.4,29.7,29.1,27.9,26.1,89,87,83,30.04,29.94,4,1,0,0.00
2013-1-17,48.0,36.8,28.2,35.5,30.4,23.4,89,78,58,30.34,29.98,10,2,0,0.02
2013-1-18,54.0,34.8,21.0,30.0,23.3,16.0,87,67,29,30.46,30.21,5,1,0,0.00
2013-1-19,59.9,44.1,27.0,33.7,29.8,23.1,87,60,31,30.22,30.03,5,3,0,0.00
2013-1-20,59.5,43.4,28.2,35.5,28.6,24.4,90,61,30,30.15,30.01,6,1,0,0.00
2013-1-21,43.7,33.3,20.8,24.9,17.4,13.2,84,54,29,30.23,30.04,8,3,0,0.00
2013-1-22,41.4,30.3,18.5,18.1,14.6,11.4,85,55,33,30.31,30.17,6,2,0,0.00
2013-1-23,56.3,38.3,21.4,35.0,27.0,15.4,86,65,44,30.23,30.02,5,1,0,0.00
2013-1-24,41.9,38.7,34.0,36.1,21.4,14.5,90,51,38,30.32,30.07,13,4,0,0.00
2013-1-25,49.1,39.1,29.3,44.9,31.5,18.6,90,76,40,30.12,29.87,7,2,0,0.19
2013-1-26,55.6,41.9,28.9,35.9,30.8,26.3,91,68,39,30.21,30.10,6,1,0,0.00
2013-1-27,65.5,54.8,45.9,51.0,42.7,32.0,77,64,52,30.13,29.96,7,3,0,0.00
2013-1-28,73.4,63.8,58.1,59.7,55.3,51.3,86,74,60,30.03,29.90,9,4,0,0.00
2013-1-29,77.2,68.3,59.7,62.6,58.7,55.2,89,73,53,29.91,29.29,12,5,0,0.04
2013-1-30,66.9,48.1,32.4,62.6,40.2,23.8,93,75,55,29.89,29.34,10,4,0,1.85
2013-1-31,55.2,40.3,25.5,32.7,25.7,19.4,82,58,34,30.18,29.89,10,3,0,0.00
2013-2-1,37.0,28.0,20.3,19.3,9.4,2.7,67,46,27,30.42,30.17,9,2,0,0.00
2013-2-2,52.0,35.8,21.2,31.9,25.1,12.1,89,66,41,30.18,29.99,5,1,0,0.01
2013-2-3,56.5,42.0,28.8,33.0,27.5,22.0,90,61,30,30.04,29.96,9,2,0,0.00
2013-2-4,58.8,45.0,31.6,42.4,33.0,26.2,87,66,33,29.97,29.76,6,2,0,0.06
2013-2-5,65.3,48.2,34.9,48.5,40.2,31.4,92,76,44,29.92,29.79,5,1,0,0.00
2013-2-6,63.5,49.8,33.1,41.6,38.2,30.2,93,67,43,30.08,29.89,6,2,0,0.00
2013-2-7,71.6,56.5,40.5,52.8,46.2,35.4,88,70,48,29.91,29.71,6,1,0,0.03
2013-2-8,56.1,43.9,29.8,53.3,37.4,25.8,91,78,65,30.18,29.74,10,4,0,0.50
2013-2-9,52.7,41.0,26.2,39.1,31.0,22.0,88,69,47,30.20,29.90,5,2,0,0.00
2013-2-10,60.3,54.7,46.0,55.9,46.7,35.4,90,75,53,29.91,29.60,8,4,0,0.91
2013-2-11,58.3,49.6,44.2,51.8,33.2,26.2,87,55,30,30.06,29.79,5,1,0,0.00
2013-2-12,53.4,45.7,33.4,39.7,35.1,29.7,88,68,44,30.03,29.63,5,2,0,0.01
2013-2-13,45.0,41.1,36.1,40.1,36.5,32.9,90,84,72,29.89,29.61,7,2,0,0.07
2013-2-14,63.9,47.2,33.8,40.1,34.1,29.3,90,65,27,29.93,29.85,5,2,0,0.00
2013-2-15,57.4,43.3,29.5,37.4,29.8,23.2,90,63,30,30.07,29.90,9,2,0,0.00
2013-2-16,41.2,32.1,21.9,24.4,18.0,11.8,82,57,35,30.13,30.07,7,2,0,0.00
2013-2-17,56.3,42.6,26.2,27.9,21.9,16.9,76,46,27,30.14,29.93,6,3,0,0.00
2013-2-18,59.0,50.9,41.5,50.1,40.8,28.3,90,69,49,29.97,29.62,10,5,0,1.26
2013-2-19,51.1,40.5,26.8,39.8,27.2,22.1,86,62,34,30.14,29.81,9,3,0,0.00
2013-2-20,38.5,32.6,27.0,22.7,16.9,12.4,80,53,38,30.23,30.03,8,3,0,0.00
2013-2-21,46.9,39.1,32.7,43.5,29.6,18.7,90,70,40,30.06,29.57,9,3,0,0.76
2013-2-22,50.2,42.6,37.6,41.4,37.0,32.0,90,81,61,29.95,29.72,4,1,0,0.00
2013-2-23,53.2,38.7,27.7,31.6,27.8,24.1,87,67,39,29.93,29.81,7,2,0,0.00
2013-2-24,61.7,42.6,24.8,31.1,26.9,20.7,88,58,30,29.98,29.76,7,2,0,0.00
2013-2-25,60.6,52.2,39.2,51.8,37.3,24.7,90,58,36,29.77,29.13,12,5,0,0.41
2013-2-26,54.0,44.3,40.8,51.1,36.1,31.4,90,73,65,29.67,29.17,10,4,0,0.05
2013-2-27,46.6,42.4,39.4,34.0,31.2,27.1,72,64,58,29.83,29.67,9,3,0,0.00
2013-2-28,45.0,38.9,32.4,28.6,26.5,24.7,75,61,50,29.95,29.84,8,3,0,0.00
2013-3-1,40.8,35.9,32.9,28.3,26.7,24.7,77,69,57,30.02,29.93,6,3,0,0.00
2013-3-2,37.2,32.4,28.4,27.2,23.6,17.2,84,70,55,30.10,29.99,8,3,0,0.01
2013-3-3,50.4,35.1,17.8,24.2,18.9,12.6,86,55,28,30.10,29.93,5,1,0,0.00
2013-3-4,70.0,53.8,30.9,46.4,30.5,22.2,74,44,20,29.94,29.61,9,4,0,0.00
2013-3-5,63.0,49.9,35.6,55.9,37.7,21.0,87,64,39,30.04,29.61,11,5,0,0.42
2013-3-6,46.8,37.3,28.4,27.6,23.2,20.2,85,57,43,30.23,30.04,12,4,0,0.00
2013-3-7,54.9,39.7,27.3,30.6,27.5,23.1,87,64,37,30.27,30.14,7,2,0,0.00
2013-3-8,67.1,46.9,27.9,33.2,23.6,0.6,87,50,7,30.26,30.03,6,1,0,0.00
2013-3-9,71.6,59.7,45.3,36.8,31.7,26.6,59,36,19,30.04,29.78,8,3,0,0.00
2013-3-10,66.4,58.6,51.8,55.8,48.0,37.5,91,70,40,29.82,29.59,13,5,0,1.25
2013-3-11,52.3,42.1,31.1,49.5,34.3,26.3,90,74,54,29.90,29.66,6,2,0,0.00
2013-3-12,58.6,41.3,25.7,34.5,26.5,21.5,89,62,25,30.08,29.89,7,1,0,0.00
2013-3-13,52.3,42.3,30.2,33.5,25.0,20.9,82,52,32,30.27,30.08,9,3,0,0.00
2013-3-14,65.1,44.1,25.0,35.8,26.5,20.6,87,57,23,30.29,30.03,6,2,0,0.00
2013-3-15,79.0,62.6,40.6,50.5,43.3,34.2,81,51,35,30.01,29.73,10,3,0,0.00
2013-3-16,78.6,66.3,52.7,53.8,50.8,45.7,87,59,42,29.78,29.65,9,4,0,0.00
2013-3-17,71.8,59.5,47.7,58.8,50.0,45.2,92,73,51,29.76,29.52,6,2,0,0.29
2013-3-18,64.8,54.9,40.5,59.5,50.4,37.2,91,85,79,29.89,29.51,14,3,0,0.55
2013-3-19,59.4,46.4,33.1,36.3,28.2,17.6,90,55,20,30.06,29.90,7,2,0,0.00
2013-3-20,58.8,45.4,30.7,35.2,24.3,7.0,87,47,23,30.09,29.93,12,3,0,0.00
2013-3-21,49.6,38.0,25.0,30.7,16.3,6.9,85,45,18,29.99,29.79,5,2,0,0.05
2013-3-22,46.9,41.9,33.1,42.6,38.0,29.7,89,86,81,29.85,29.72,7,2,0,0.33
2013-3-23,55.6,49.6,44.8,48.8,44.9,41.4,92,84,74,29.77,29.51,9,3,0,0.46
2013-3-24,50.7,45.6,36.5,47.9,38.6,25.1,91,77,59,29.80,29.37,14,4,0,0.10
2013-3-25,41.0,36.8,32.7,25.2,22.7,19.6,65,56,49,30.11,29.80,10,5,0,0.00
2013-3-26,50.5,37.8,27.3,27.5,23.9,20.6,83,58,36,30.23,30.11,9,3,0,0.00
2013-3-27,59.9,41.3,22.1,31.9,24.7,17.2,88,58,26,30.29,30.15,5,1,0,0.00
2013-3-28,71.6,50.6,30.0,40.2,31.9,26.0,89,56,21,30.23,30.06,5,1,0,0.00
2013-3-29,66.4,52.5,41.9,52.7,44.4,34.8,91,77,33,30.13,30.02,6,1,0,0.09
2013-3-30,58.1,52.9,45.9,55.8,50.5,43.4,95,91,88,30.06,29.79,4,1,0,0.39
2013-3-31,63.9,56.8,44.6,58.3,53.6,42.4,97,89,73,29.83,29.73,6,1,0,0.02
2013-4-1,70.0,54.3,37.6,48.9,42.1,34.7,94,67,38,29.97,29.79,8,2,0,0.00
2013-4-2,51.8,46.6,39.6,38.2,31.2,25.6,88,57,38,30.13,29.96,10,4,0,0.18
2013-4-3,48.9,44.8,40.1,38.3,29.6,21.9,79,56,36,30.09,29.96,12,3,0,0.05
2013-4-4,51.1,46.5,40.5,48.6,42.2,29.2,92,86,49,29.98,29.83,6,3,0,0.51
2013-4-5,70.3,54.6,44.2,46.9,40.1,31.2,91,64,25,30.03,29.89,7,2,0,0.00
2013-4-6,77.5,59.2,38.5,44.3,37.5,27.7,90,53,17,29.96,29.76,8,2,0,0.00
2013-4-7,74.5,63.4,50.2,55.3,49.5,41.3,82,62,44,29.89,29.75,8,3,0,0.00
2013-4-8,81.5,68.0,55.2,58.5,54.7,49.1,85,64,41,29.83,29.69,8,3,0,0.00
2013-4-9,83.5,73.3,64.8,65.5,62.0,56.7,82,69,51,29.84,29.70,7,3,0,0.00
2013-4-10,87.4,77.5,70.7,65.7,63.5,61.0,79,63,44,29.80,29.51,8,4,0,0.01
2013-4-11,73.9,54.0,41.5,65.0,51.1,38.8,94,90,70,29.65,29.50,10,2,0,3.08
2013-4-12,70.3,53.1,36.3,47.0,40.9,34.2,92,68,35,29.85,29.65,5,1,0,0.00
2013-4-13,77.2,59.1,41.7,47.4,41.4,34.9,91,58,22,29.95,29.76,4,1,0,0.00
2013-4-14,71.8,59.3,49.1,55.5,49.7,46.2,91,72,50,29.77,29.60,9,2,0,0.00
2013-4-18,47.5,47.0,46.6,44.4,43.7,43.4,89,88,88,29.70,29.65,6,4,0,0.16
2013-4-19,60.6,47.5,37.8,42.4,34.5,30.6,89,63,35,29.99,29.68,8,3,0,0.01
2013-4-20,72.5,52.6,32.9,45.4,34.8,28.9,90,58,23,30.13,29.99,5,1,0,0.00
2013-4-21,54.7,44.7,40.1,40.4,38.5,35.4,86,79,53,30.20,30.11,3,0,0,0.00
2013-5-3,44.4,42.3,38.1,44.1,42.0,37.8,99,99,99,29.85,29.76,5,2,0,0.15
2013-5-4,60.6,46.5,33.3,47.2,40.2,33.0,99,82,48,29.83,29.73,6,1,0,0.06
2013-5-5,63.7,51.7,45.1,49.2,45.1,41.7,90,79,53,29.78,29.71,6,2,0,0.77
2013-5-6,66.0,57.9,52.3,56.5,52.7,48.9,92,83,68,29.79,29.70,8,2,0,0.01
2013-5-7,81.3,63.0,47.7,59.4,53.5,44.4,96,74,42,29.87,29.78,5,1,0,0.00
2013-5-8,86.4,68.1,48.9,62.3,54.7,45.8,95,67,35,29.93,29.83,5,1,0,0.00
2013-5-9,84.4,69.9,54.5,63.4,58.6,51.0,95,70,45,29.93,29.79,8,2,0,0.00
2013-5-10,76.1,67.2,62.1,68.7,64.5,61.3,99,92,74,29.81,29.69,9,1,0,1.79
2013-5-11,76.6,65.7,56.8,64.6,57.7,50.2,99,78,42,29.90,29.76,7,2,0,0.00
2013-5-12,70.2,59.2,44.8,55.1,39.1,30.5,94,53,23,30.09,29.91,7,2,0,0.00
2013-5-13,80.4,60.9,40.1,53.4,45.6,38.0,94,63,31,30.13,29.96,4,1,0,0.00
2013-5-14,89.8,73.6,57.9,58.4,53.6,49.9,77,52,26,29.98,29.83,10,3,0,0.00
2013-5-15,87.8,73.8,57.6,59.5,54.1,49.4,88,53,31,29.96,29.77,7,2,0,0.00
2013-5-16,80.6,71.5,63.5,64.9,61.0,57.1,93,71,52,29.83,29.73,5,1,0,0.00
2013-5-17,84.4,71.2,64.8,71.2,65.4,61.4,98,83,55,29.80,29.71,5,1,0,0.26
2013-5-18,88.5,75.4,62.6,75.0,69.7,62.0,99,84,61,29.84,29.73,5,1,0,0.00
2013-5-19,91.8,80.8,71.6,72.6,68.5,63.6,95,69,42,29.81,29.70,6,2,0,0.00
2013-5-20,91.0,81.1,72.3,71.6,69.4,68.1,91,69,49,29.79,29.66,8,3,0,0.00
2013-5-21,79.0,70.7,65.1,72.0,67.6,63.4,99,90,75,29.83,29.62,9,2,0,4.94
2013-5-22,84.7,70.4,62.4,66.3,63.3,60.3,99,81,45,29.75,29.59,10,2,0,0.17
2013-5-23,85.6,73.3,58.8,67.7,60.6,57.0,98,68,44,29.96,29.74,10,2,0,0.00
2013-5-24,78.8,66.2,52.5,57.5,51.9,46.6,96,63,34,30.15,29.97,10,3,0,0.00
2013-5-25,83.3,66.6,47.3,59.7,52.3,45.0,95,65,33,30.16,29.98,4,1,0,0.00
2013-5-26,91.9,72.3,53.8,62.3,55.6,49.8,93,62,28,30.04,29.92,4,1,0,0.00
2013-5-27,89.2,74.6,58.1,69.2,61.5,54.9,92,67,33,29.95,29.79,8,2,0,0.00
2013-5-28,91.4,80.1,70.7,68.4,62.5,54.0,82,58,30,29.89,29.79,8,3,0,0.00
2013-5-29,91.6,78.6,61.2,69.0,63.7,57.4,89,62,36,29.89,29.76,7,2,0,0.00
2013-5-30,88.5,77.7,71.1,74.7,68.7,65.2,92,75,54,29.87,29.73,6,2,0,0.09
2013-5-31,88.2,77.0,66.9,74.9,71.4,66.0,99,84,63,29.84,29.67,7,2,0,1.58
2013-6-1,85.3,73.6,67.8,73.1,69.8,64.6,98,88,65,29.85,29.65,9,2,0,0.41
2013-6-2,83.1,72.6,65.1,69.6,65.6,60.8,98,80,50,29.81,29.74,5,2,0,0.00
2013-6-3,87.3,71.3,59.2,66.1,61.2,56.9,95,73,39,29.86,29.75,8,2,0,0.00
2013-6-4,87.6,73.8,57.7,66.5,62.1,54.8,93,70,45,29.85,29.74,5,1,0,0.00
2013-6-5,91.0,76.7,65.8,75.4,68.8,62.8,91,78,54,29.79,29.63,5,1,0,0.40
2013-6-6,85.1,75.8,67.6,70.8,67.0,64.6,91,76,55,29.69,29.58,6,2,0,0.01
2013-6-7,84.9,73.8,61.2,66.3,61.7,56.0,92,68,38,29.73,29.61,5,2,0,0.00
2013-6-8,89.1,72.9,56.5,64.8,57.6,52.9,94,64,30,29.82,29.72,3,1,0,0.00
2013-6-9,91.8,74.5,61.3,72.2,65.9,58.3,94,77,48,29.82,29.62,7,2,0,0.55
2013-6-10,96.8,80.6,68.2,73.9,68.0,61.1,95,70,31,29.77,29.69,9,2,0,0.01
2013-6-11,98.6,85.6,71.4,74.0,70.4,66.3,92,64,38,29.87,29.76,5,2,0,0.00
2013-6-12,97.7,85.7,70.2,76.2,72.7,68.1,95,68,44,29.89,29.73,7,2,0,0.00
2013-6-13,96.6,84.4,70.5,75.5,70.5,64.3,84,65,40,29.79,29.71,7,3,0,0.00
2013-6-14,89.6,76.8,63.7,66.4,61.8,57.8,97,64,37,29.88,29.77,7,2,0,0.00
2013-6-15,95.0,78.0,60.6,68.4,63.7,57.3,95,66,35,29.90,29.79,4,1,0,0.00
2013-6-16,91.4,78.3,67.5,74.2,69.1,64.8,93,75,51,29.87,29.77,6,1,0,0.00
2013-6-17,87.4,76.8,71.1,74.1,71.2,68.7,98,84,61,29.83,29.67,7,1,0,1.30
2013-6-18,85.6,75.1,68.7,71.7,69.8,67.9,99,85,57,29.81,29.66,5,1,0,0.04
2013-6-19,92.3,77.4,65.1,75.0,68.6,61.1,95,78,43,29.89,29.78,9,1,0,1.23
2013-6-20,97.9,82.0,69.8,77.4,69.6,65.2,94,70,36,29.97,29.87,4,1,0,0.01
2013-6-21,96.3,81.4,67.5,73.6,69.8,64.8,93,71,41,30.01,29.90,5,1,0,0.00
2013-6-22,93.2,81.2,67.5,73.3,69.5,65.1,94,71,44,29.98,29.84,4,1,0,0.00
2013-6-23,95.5,81.9,68.0,72.5,69.1,65.6,94,69,40,29.94,29.83,4,1,0,0.00
2013-6-24,96.1,85.0,70.9,75.4,72.3,69.1,94,68,46,29.97,29.83,5,1,0,0.00
2013-6-25,93.2,83.6,73.0,75.0,71.8,67.0,93,69,46,29.93,29.77,7,2,0,0.00
2013-6-26,94.6,84.7,73.4,75.2,70.9,65.4,92,66,40,29.84,29.68,9,3,0,0.00
2013-6-27,99.7,87.7,76.1,79.3,74.0,68.3,82,65,46,29.76,29.65,5,2,0,0.00
2013-6-28,96.1,79.2,72.3,76.3,72.3,68.5,99,81,46,29.75,29.53,8,1,0,1.00
2013-6-29,91.6,79.4,65.3,70.0,64.7,56.9,96,65,32,29.59,29.51,8,2,0,0.00
2013-6-30,82.8,73.1,63.7,67.1,64.6,61.6,96,76,55,29.66,29.54,6,2,0,0.00
2013-7-1,81.7,71.8,64.6,70.7,65.1,61.0,94,81,60,29.77,29.64,6,2,0,0.09
2013-7-2,88.0,74.0,61.0,66.4,62.8,59.0,95,71,42,29.87,29.74,5,2,0,0.00
2013-7-3,87.8,73.6,60.6,70.3,63.9,58.3,95,75,43,29.93,29.84,4,1,0,0.00
2013-7-4,89.8,76.1,62.1,72.9,67.8,60.4,96,78,51,29.89,29.77,6,1,0,0.00
2013-7-5,88.2,74.3,64.2,73.7,68.8,62.7,99,85,58,29.91,29.78,5,1,0,0.45
2013-7-6,92.5,76.9,64.6,73.8,69.6,63.0,99,81,48,29.90,29.79,6,1,0,0.00
2013-7-7,95.0,80.2,68.9,76.8,72.3,67.7,98,79,48,29.94,29.84,4,1,0,0.00
2013-7-8,95.0,80.3,69.3,78.0,72.8,65.3,94,79,50,29.99,29.89,4,1,0,0.00
2013-7-9,97.2,85.1,72.5,76.8,73.0,68.1,94,70,45,29.97,29.82,5,2,0,0.00
2013-7-10,97.3,86.9,77.2,80.1,75.2,71.7,89,70,45,29.89,29.69,7,2,0,0.00
2013-7-11,96.1,84.1,73.8,78.3,73.1,66.2,95,72,44,29.80,29.71,9,2,0,0.00
2013-7-12,89.6,77.0,65.1,67.9,65.0,61.8,90,69,43,29.86,29.76,6,2,0,0.00
2013-7-13,89.1,74.3,59.2,67.5,63.2,56.3,97,72,42,29.87,29.78,7,2,0,0.00
2013-7-14,90.1,76.3,64.2,74.7,69.4,61.5,97,81,58,29.92,29.80,6,2,0,0.00
2013-7-15,92.7,79.7,71.4,77.1,71.8,64.0,94,78,56,30.03,29.91,5,1,0,0.01
2013-7-16,96.1,82.6,70.3,78.1,71.7,63.4,97,71,45,30.11,30.02,5,2,0,0.00
2013-7-17,97.5,84.0,69.3,78.9,72.5,63.0,97,71,46,30.15,29.98,5,1,0,0.00
2013-7-18,93.9,80.0,73.8,81.3,73.7,66.1,97,82,59,30.03,29.86,7,1,0,0.14
2013-7-19,93.0,80.6,70.5,79.9,72.1,64.0,97,76,51,29.92,29.76,6,1,0,0.00
2013-7-20,94.1,82.4,69.6,77.8,72.1,59.8,99,73,53,29.80,29.66,6,2,0,0.00
2013-7-21,94.1,84.3,73.2,78.5,73.8,66.3,96,73,46,29.80,29.70,6,2,0,0.00
2013-7-22,89.8,79.3,68.4,78.5,72.9,48.2,93,82,42,29.79,29.69,6,3,0,2.32
2013-7-23,91.4,79.4,71.2,75.7,61.6,-34.1,98,64,1,29.83,29.65,8,2,0,0.33
2013-7-24,86.2,79.4,73.2,75.9,59.7,-30.9,98,60,2,29.80,29.68,5,1,0,0.01
2013-7-25,84.7,74.9,64.2,68.2,59.7,26.8,78,60,24,29.91,29.78,6,2,0,0.00
2013-7-26,85.5,72.9,60.6,69.7,59.3,-38.6,98,69,5,29.90,29.78,5,1,0,0.00
2013-7-27,92.3,77.5,69.4,71.4,63.4,42.7,80,63,37,29.83,29.72,4,1,0,0.00
2013-7-28,84.0,73.1,65.1,67.5,59.5,24.5,78,64,21,29.90,29.78,5,2,0,0.00
2013-7-29,91.8,75.3,64.0,70.7,58.2,10.4,78,57,12,29.99,29.88,5,1,0,0.00
2013-7-30,87.8,77.8,68.9,75.0,65.4,32.2,77,67,21,29.97,29.84,4,1,0,0.00
2013-7-31,90.7,78.5,71.4,78.2,68.1,-32.1,98,76,11,29.89,29.76,5,1,0,1.75
2013-8-1,89.8,77.2,68.4,76.8,69.1,14.9,98,80,12,29.89,29.79,5,1,0,0.00
2013-8-2,91.6,78.2,63.5,73.6,65.9,-32.7,98,72,1,29.87,29.77,4,0,0,0.00
2013-8-3,83.7,76.5,70.7,75.5,62.0,-33.3,98,69,1,29.90,29.77,6,1,0,0.02
2013-8-4,91.6,79.5,67.8,78.1,70.5,30.6,98,76,18,29.94,29.86,5,1,0,0.00
2013-8-5,82.6,75.5,69.4,77.8,61.8,-8.8,98,73,3,29.90,29.74,3,0,0,1.28
2013-8-6,89.2,79.5,73.4,78.7,63.5,-17.7,98,68,2,29.80,29.70,6,1,0,0.00
2013-8-7,93.7,82.9,73.0,81.6,70.1,-27.9,98,73,1,29.79,29.68,5,1,0,0.00
2013-8-8,95.0,84.3,75.4,81.1,69.6,-28.1,98,70,12,29.79,29.68,4,1,0,0.00
2013-8-9,95.7,85.1,73.2,79.6,65.5,-29.6,98,60,4,29.86,29.75,6,1,0,0.00
2013-8-10,92.5,81.6,74.8,78.9,64.4,-29.1,98,68,1,29.95,29.83,6,1,0,0.00
2013-8-11,90.0,77.9,73.0,80.7,69.1,-29.3,98,85,9,29.97,29.87,5,1,0,0.20
2013-8-12,94.3,80.8,72.1,79.8,72.9,32.9,98,81,17,29.90,29.75,5,2,0,0.14
2013-8-13,86.5,77.3,69.8,78.8,68.2,-30.1,98,80,9,29.85,29.74,6,1,0,0.00
2013-8-14,80.2,72.2,62.4,72.8,54.9,-38.5,98,63,6,29.92,29.80,8,3,0,0.00
2013-8-15,82.6,68.4,55.8,64.5,54.5,-40.2,98,69,8,29.92,29.83,5,1,0,0.00
2013-8-16,84.4,71.1,58.6,72.1,60.4,-32.9,98,76,6,29.89,29.82,6,1,0,0.00
2013-8-17,83.8,71.8,64.4,74.6,62.2,-12.3,98,81,3,29.91,29.84,5,1,0,0.20
2013-8-18,88.0,73.7,64.4,73.7,63.2,-31.8,98,78,1,29.96,29.86,5,1,0,0.00
2013-8-19,89.1,75.8,63.7,74.4,66.4,19.4,98,77,12,29.94,29.83,4,1,0,0.00
2013-8-20,91.2,77.7,66.7,78.6,69.2,20.2,98,80,11,29.94,29.84,4,1,0,0.00
2013-8-21,93.7,79.9,67.8,79.5,69.7,26.1,98,76,13,29.98,29.87,4,1,0,0.00
2013-8-22,93.9,81.5,70.0,80.2,72.0,17.2,98,77,9,29.98,29.82,5,1,0,0.00
2013-8-23,93.9,80.6,68.4,78.2,69.8,24.1,98,75,13,29.91,29.81,6,1,0,0.00
2013-8-24,94.3,81.6,70.2,77.7,70.2,12.2,98,74,8,29.99,29.87,7,1,0,0.00
2013-8-25,90.1,78.8,70.2,78.6,67.4,-16.1,98,76,2,30.10,29.98,4,1,0,0.00
2013-8-26,91.9,77.7,66.9,75.3,68.9,28.4,98,79,17,30.11,29.96,4,0,0,0.00
2013-8-27,92.1,77.4,63.5,75.3,67.0,37.2,98,75,27,30.00,29.87,5,0,0,0.00
2013-8-28,93.9,78.6,64.4,74.6,66.8,14.0,98,73,9,29.94,29.84,4,1,0,0.00
2013-8-29,96.3,80.6,66.4,79.8,70.6,11.2,98,76,8,29.92,29.79,7,1,0,0.00
2013-8-30,97.3,82.1,69.1,79.1,72.2,16.9,98,77,9,29.86,29.72,5,1,0,0.00
2013-8-31,98.1,83.5,70.0,78.4,71.1,-1.6,98,72,4,29.76,29.65,5,1,0,0.00
2013-9-1,94.5,79.5,72.9,77.9,68.2,-9.2,98,77,3,29.75,29.63,6,1,0,1.39
2013-9-2,91.8,80.6,72.1,78.7,68.8,-28.8,98,75,3,29.75,29.64,6,1,0,0.00
2013-9-3,87.6,74.9,64.8,69.7,64.3,28.8,98,74,20,29.86,29.78,6,1,0,0.00
2013-9-4,88.3,73.5,60.3,73.6,64.4,6.3,98,78,7,29.96,29.84,7,1,0,0.00
2013-9-5,89.8,74.4,60.3,72.9,64.9,18.3,98,77,12,29.99,29.91,5,1,0,0.00
2013-9-6,91.9,75.4,62.4,73.7,66.3,40.7,98,78,29,29.98,29.86,4,1,0,0.00
2013-9-7,95.0,78.0,62.8,78.4,67.4,-28.6,98,76,1,29.92,29.79,5,1,0,0.00
2013-9-8,96.1,80.1,64.8,80.4,70.6,8.6,98,78,6,29.84,29.72,4,0,0,0.00
2013-9-9,92.8,80.1,70.3,79.1,70.9,21.4,98,78,11,29.89,29.77,4,1,0,0.00
2013-9-10,95.9,80.4,70.2,78.7,70.6,-29.9,98,77,18,29.97,29.86,5,1,0,0.00
2013-9-11,94.3,80.1,70.3,79.6,71.1,-7.4,98,80,3,30.01,29.89,4,1,0,0.19
2013-9-12,93.6,79.2,68.0,76.8,66.5,-29.9,98,73,8,29.91,29.74,5,1,0,0.01
2013-9-13,83.8,73.4,58.6,72.3,61.2,17.9,98,70,14,29.86,29.78,6,2,0,0.00
2013-9-14,78.3,63.8,51.3,58.4,52.9,-5.5,98,73,7,29.93,29.84,7,1,0,0.00
2013-9-15,87.8,66.6,47.7,64.6,53.3,-24.3,98,71,2,29.94,29.86,4,0,0,0.00
2013-9-16,90.9,72.2,55.4,72.3,58.6,-33.0,98,70,13,29.98,29.91,5,1,0,0.00
2013-9-17,91.9,76.8,63.5,73.0,64.9,24.9,98,72,16,30.00,29.86,4,0,0,0.00
2013-9-18,88.2,77.4,66.9,76.6,66.7,-31.5,98,76,8,29.95,29.85,5,1,0,0.00
2013-9-19,93.7,78.6,65.1,74.7,67.7,29.2,98,73,17,29.94,29.78,8,1,0,0.00
2013-9-20,79.5,73.7,69.3,78.9,66.8,16.3,98,85,10,29.82,29.64,5,0,0,1.63
2013-9-21,77.7,68.1,55.0,68.7,59.5,11.4,98,78,12,29.74,29.63,7,2,0,0.24
2013-9-22,79.5,63.9,51.3,61.1,54.7,16.6,98,76,17,29.79,29.70,6,1,0,0.00
2013-9-23,85.1,66.3,49.8,66.5,58.1,40.8,98,79,43,29.80,29.70,3,0,0,0.00
2013-9-24,79.0,69.1,60.1,76.9,65.5,9.7,98,93,7,29.75,29.62,2,0,0,0.08
2013-9-25,86.5,74.4,66.0,75.1,65.2,-32.7,98,80,7,29.66,29.59,5,0,0,0.00
2013-9-26,88.5,73.5,62.4,73.9,65.5,18.5,98,80,13,29.82,29.65,4,1,0,0.00
2013-9-27,88.0,71.4,59.4,71.7,63.0,1.1,98,80,6,29.91,29.81,6,0,0,0.00
2013-9-28,85.3,70.1,55.9,66.1,59.9,-10.9,98,76,4,29.96,29.84,6,1,0,0.00
2013-9-29,75.2,67.1,62.8,74.6,43.7,-37.9,98,64,1,29.88,29.78,3,0,0,0.26
2013-9-30,75.2,70.4,67.1,74.3,69.7,66.5,98,98,96,29.81,29.74,3,0,0,0.33
2013-10-1,84.9,73.6,65.8,75.5,63.5,-18.0,98,79,2,29.89,29.79,4,0,0,0.07
2013-10-2,84.4,73.8,65.8,73.2,62.5,-31.9,98,77,5,29.94,29.85,4,1,0,0.00
2013-10-3,88.3,75.0,62.2,74.4,66.4,-0.5,98,79,5,29.90,29.79,6,1,0,0.00
2013-10-4,86.4,74.9,66.9,76.6,67.0,9.6,98,82,7,29.90,29.81,3,1,0,0.00
2013-10-5,90.7,78.9,70.0,77.5,64.1,20.9,98,69,11,29.86,29.70,4,1,0,0.00
2013-10-6,74.8,63.1,52.9,74.2,52.3,-41.3,98,74,1,29.82,29.70,7,1,0,1.08
2013-10-7,70.3,56.0,44.1,56.4,47.4,-45.6,98,79,5,29.94,29.80,6,1,0,0.00
2013-10-8,68.5,53.0,45.7,57.9,49.3,12.8,98,90,18,29.99,29.89,5,1,0,0.00
2013-10-9,79.5,65.7,51.3,67.2,54.2,-16.3,98,75,3,29.98,29.90,3,1,0,0.00
2013-10-10,81.5,65.1,54.0,67.5,58.2,16.9,98,83,14,29.99,29.84,4,0,0,0.00
2013-10-11,84.2,67.1,52.9,67.9,58.5,21.3,98,78,16,29.89,29.79,3,0,0,0.00
2013-10-12,77.9,64.7,54.3,73.2,58.6,-32.5,98,88,13,29.96,29.81,5,0,0,0.01
2013-10-13,81.0,67.9,58.8,69.6,58.5,12.0,98,76,14,30.10,29.95,6,1,0,0.01
2013-10-14,84.0,67.4,52.5,68.7,59.2,16.8,98,79,13,30.06,29.89,4,1,0,0.04
2013-10-15,75.2,68.9,65.5,70.6,57.9,-35.7,98,78,8,29.89,29.78,4,1,0,0.43
2013-10-16,66.4,61.0,56.1,65.8,56.4,-19.7,98,91,3,29.85,29.77,4,1,0,0.91
2013-10-17,71.1,58.6,45.9,60.4,51.0,-44.2,98,82,1,29.86,29.78,6,0,0,0.02
2013-10-18,72.0,56.0,40.6,57.7,49.2,13.2,98,82,16,29.92,29.76,3,0,0,0.00
2013-10-19,59.4,51.7,38.1,56.1,43.3,-49.5,98,80,7,29.92,29.75,8,1,0,0.03
2013-10-20,69.1,49.0,33.1,49.6,39.8,-2.7,98,76,12,29.97,29.83,3,0,0,0.00
2013-10-21,74.1,54.8,36.9,57.5,43.3,-22.8,98,73,3,29.93,29.80,4,1,0,0.00
2013-10-22,68.7,56.7,45.0,55.5,47.3,12.9,98,76,21,29.91,29.73,5,0,0,0.04
2013-10-23,61.2,49.2,39.6,47.9,35.5,-9.6,98,65,10,30.01,29.78,8,1,0,0.00
2013-10-24,66.7,49.5,35.8,51.1,37.4,-55.4,98,71,1,30.22,29.96,6,1,0,0.00
2013-10-25,55.8,41.0,30.2,37.7,30.9,-28.5,98,73,5,30.40,30.17,7,1,0,0.00
2013-10-26,65.3,48.1,30.0,50.8,36.1,-33.2,98,70,2,30.16,29.93,6,1,0,0.00
2013-10-27,72.1,59.0,47.5,60.5,50.7,-29.6,98,80,2,29.94,29.84,3,0,0,0.01
2013-10-28,73.9,61.5,55.8,60.9,51.6,-39.9,98,80,1,30.07,29.90,1,0,0,0.00
2013-10-29,77.5,63.8,49.8,67.8,51.6,-24.3,98,74,2,30.09,29.94,5,1,0,0.00
2013-10-30,76.5,67.9,57.0,66.9,49.2,-37.3,98,62,2,30.02,29.81,5,0,0,0.00
2013-10-31,70.5,67.0,61.5,69.9,63.5,30.3,98,91,23,29.79,29.43,11,2,0,2.02
2013-11-1,74.3,58.5,44.6,56.6,44.5,-45.7,98,70,1,29.73,29.59,3,0,0,0.02
2013-11-2,64.4,50.4,37.9,50.2,42.8,-52.1,98,79,32,30.05,29.73,7,1,0,0.01
2013-11-3,63.7,45.1,32.0,46.3,36.7,-51.9,98,78,1,30.17,29.99,4,0,0,0.00
2013-11-4,69.6,52.6,37.9,51.0,42.7,-1.2,98,73,11,30.15,30.04,8,0,0,0.00
2013-11-5,74.8,60.6,48.7,57.5,50.1,19.3,98,70,27,30.15,29.97,5,1,0,0.00
2013-11-6,64.4,57.3,44.2,62.0,51.2,-9.3,98,83,5,30.09,29.87,7,1,0,0.42
2013-11-7,58.1,44.2,33.6,43.7,30.1,-55.0,98,68,1,30.26,30.10,8,1,0,0.00
2013-11-8,64.9,49.2,31.6,45.8,35.4,-34.9,98,67,3,30.24,30.06,3,0,0,0.00
2013-11-9,62.4,48.8,36.9,47.9,38.7,-47.8,98,75,4,30.15,30.04,4,0,0,0.00
2013-11-10,69.8,51.2,37.8,52.1,40.1,-22.9,98,72,5,30.21,30.11,5,0,0,0.00
2013-11-11,72.7,51.2,33.3,51.3,40.5,-13.8,98,73,6,30.16,30.00,4,0,0,0.00
2013-11-12,53.4,40.6,28.9,50.0,26.6,-26.3,98,60,3,30.53,30.06,10,3,0,0.00
2013-11-13,51.1,33.7,22.6,27.4,16.7,-13.4,76,52,18,30.57,30.30,5,0,0,0.00
2013-11-14,59.2,37.0,18.1,29.2,12.9,-64.7,98,42,4,30.31,30.01,3,0,0,0.00
2013-11-15,62.6,48.9,31.1,53.2,34.3,-44.3,98,66,1,30.02,29.85,6,0,0,0.02
2013-11-16,68.2,61.6,52.9,66.9,50.3,-37.2,98,82,2,29.89,29.70,5,0,0,0.00
2013-11-17,76.1,68.2,52.2,73.7,57.7,-44.1,98,82,1,29.80,29.52,11,1,0,0.67
2013-11-18,65.3,51.2,37.0,44.5,37.5,-12.6,98,62,9,30.09,29.81,6,1,0,0.00
2013-11-19,53.6,42.0,30.7,37.1,27.5,-58.8,98,60,1,30.16,30.01,6,1,0,0.00
2013-11-20,66.2,44.6,27.7,43.0,32.1,-51.9,98,70,3,30.04,29.91,4,0,0,0.00
2013-11-21,70.3,58.5,42.4,61.5,46.4,-8.6,98,69,5,30.06,29.95,6,1,0,0.71
2013-11-22,60.1,53.1,43.5,59.5,52.6,43.0,98,98,98,30.23,30.00,7,1,0,0.53
2013-11-23,47.1,40.9,29.3,43.0,26.3,-52.2,98,64,7,30.42,30.19,11,3,0,0.02
2013-11-24,38.5,29.6,21.9,20.7,18.2,15.8,77,63,43,30.52,30.27,10,2,0,0.00
2013-11-25,43.9,36.5,31.6,43.4,30.0,-20.0,98,80,8,30.29,29.98,2,0,0,0.22
2013-11-26,42.4,38.9,32.7,41.6,27.5,-56.4,98,76,3,29.97,29.77,8,1,0,0.13
2013-11-27,35.2,27.4,16.9,24.8,16.2,-24.6,80,63,13,30.25,29.96,9,1,0,0.00
2013-11-28,47.1,26.1,14.4,24.0,2.8,-63.3,98,43,3,30.33,30.23,1,0,0,0.00
2013-11-29,57.4,35.4,20.8,34.1,9.5,-65.0,98,51,1,30.42,30.26,1,0,0,0.00
2013-11-30,58.5,40.5,21.9,33.9,20.2,-64.4,98,57,2,30.31,30.07,6,0,0,0.00
2013-12-1,61.3,51.7,36.0,47.7,39.0,-6.7,75,63,14,30.07,29.78,0,0,0,0.00
2013-12-2,63.5,55.2,44.2,55.5,42.7,-17.6,98,68,4,29.77,29.55,3,0,0,0.00
2013-12-3,61.5,54.4,43.9,60.7,52.8,-39.9,98,97,98,29.60,29.51,2,0,0,0.00
2013-12-4,76.5,67.1,57.4,67.6,59.0,-7.1,98,81,5,29.65,29.51,9,2,0,0.00
2013-12-5,69.4,48.7,34.3,68.8,40.0,-48.4,98,83,1,29.98,29.64,11,2,0,0.84
2013-12-6,34.2,31.0,25.7,33.7,30.5,25.2,98,98,98,30.29,29.91,8,1,0,1.05
2013-12-7,28.6,25.7,21.9,28.1,8.0,-64.4,98,67,1,30.43,30.18,7,1,0,0.00
2013-12-8,35.8,32.5,28.8,35.3,32.0,28.3,98,98,98,30.20,29.90,0,0,0,0.08
2013-12-9,34.5,32.0,30.6,32.0,16.0,-58.4,98,64,7,30.16,30.00,6,0,0,0.02
2013-12-10,41.2,29.7,21.4,30.1,9.1,-64.6,98,52,1,30.31,30.07,3,0,0,0.04
2013-12-11,47.7,30.8,17.4,32.6,11.6,-65.0,98,54,3,30.45,30.25,2,0,0,0.00
2013-12-12,45.1,29.0,16.0,22.9,11.6,-47.4,98,53,3,30.49,30.25,3,0,0,0.00
2013-12-13,50.5,34.7,18.7,38.7,17.4,-66.0,98,62,1,30.25,29.77,4,0,0,0.58
2013-12-14,45.3,40.9,35.4,44.8,25.8,-14.1,98,63,9,29.99,29.65,8,1,0,0.69
2013-12-15,41.7,34.5,30.2,32.9,24.1,0.3,98,68,27,30.14,29.99,8,0,0,0.00
2013-12-16,57.9,43.3,30.4,41.2,34.1,-8.3,98,74,14,30.08,29.97,7,0,0,0.00
2013-12-17,61.9,44.3,28.2,41.6,31.0,-15.1,98,64,10,30.15,30.00,5,0,0,0.00
2013-12-18,59.9,41.8,23.2,41.2,30.4,6.9,98,69,28,30.22,29.96,4,0,0,0.00
2013-12-19,61.3,54.0,43.9,54.1,47.1,37.2,82,78,59,30.00,29.79,6,0,0,0.00
2013-12-20,68.4,63.9,59.2,65.1,39.9,-41.2,98,60,1,29.82,29.64,8,2,0,0.39
2013-12-21,75.7,67.0,55.2,70.3,49.5,-36.6,98,67,5,29.63,29.29,12,4,0,1.32
2013-12-22,55.6,49.3,37.4,54.4,37.7,-44.0,98,75,1,30.09,29.52,7,1,0,0.02
2013-12-23,37.9,33.1,22.8,30.7,20.7,-61.4,85,67,1,30.37,30.09,7,1,0,0.00
2013-12-24,36.1,26.4,19.2,24.1,3.3,-66.1,98,47,1,30.48,30.29,4,0,0,0.00
2013-12-25,50.7,32.2,16.7,32.9,14.5,-66.4,98,59,4,30.30,30.16,0,0,0,0.00
2013-12-26,49.3,32.6,21.9,33.5,22.0,-11.3,98,72,18,30.32,30.21,2,0,0,0.00
2013-12-27,56.8,35.2,20.3,31.3,18.0,-59.3,98,63,3,30.34,30.21,0,0,0,0.00
2013-12-28,46.9,37.5,26.8,42.3,30.9,-14.1,98,82,8,30.21,29.81,0,0,0,0.11
2013-12-29,57.4,44.8,34.9,44.8,37.1,-49.8,98,78,15,30.05,29.80,7,0,0,0.10
2013-12-30,34.7,31.5,29.5,28.3,26.8,25.0,85,83,72,30.22,30.05,0,0,0,0.00
2013-12-31,49.5,32.3,18.3,30.4,12.7,-66.5,98,57,1,30.33,30.17,0,0,0,0.00
2014-1-1,55.4,38.9,19.6,39.9,21.6,-65.1,98,60,1,30.17,29.79,5,0,0,0.01
2014-1-2,49.1,34.3,21.0,48.6,24.2,-56.9,98,73,1,30.32,29.73,10,2,0,0.28